When you browse on this site, cookies collect data to enhance your experience and personalize the content and advertising you see.
Visit our Privacy Policy to learn more. By continuing to use the site, you agree to this use of cookies and data.
EN

Hourly Weather Nha Trang

Today, 9 July, Thursday

Time Temperature Precipitation Wind Pressure Humidity
00:00 +27°C° 0 mm 1 mps 746 mmHg 88%
01:00 +27°C° 0 mm 2 mps 745 mmHg 87%
02:00 +26°C° 0 mm 1 mps 745 mmHg 87%
03:00 +26°C° 0 mm 1 mps 745 mmHg 86%
04:00 +26°C° 0 mm 1 mps 744 mmHg 85%
05:00 +27°C° 0 mm 1 mps 745 mmHg 82%
06:00 +27°C° 0 mm 1 mps 745 mmHg 79%
07:00 +29°C° 0 mm 1 mps 745 mmHg 72%
08:00 +30°C° 0 mm 1 mps 745 mmHg 67%
09:00 +32°C° 0 mm 1 mps 746 mmHg 62%
10:00 +34°C° 0 mm 2 mps 746 mmHg 57%
11:00 +35°C° 0 mm 2 mps 745 mmHg 57%
12:00 +35°C° 0 mm 2 mps 745 mmHg 57%
13:00 +35°C° 0 mm 3 mps 744 mmHg 57%
14:00 +34°C° 0.2 mm 3 mps 744 mmHg 60%
15:00 +34°C° 0.2 mm 3 mps 743 mmHg 64%
16:00 +33°C° 0.2 mm 3 mps 743 mmHg 68%
17:00 +31°C° 0.1 mm 3 mps 743 mmHg 74%
18:00 +30°C° 0.1 mm 2 mps 743 mmHg 79%
19:00 +28°C° 0.1 mm 2 mps 744 mmHg 84%
20:00 +28°C° 0 mm 2 mps 744 mmHg 86%
21:00 +28°C° 0 mm 2 mps 745 mmHg 87%
22:00 +28°C° 0 mm 2 mps 745 mmHg 88%
23:00 +27°C° 0 mm 2 mps 745 mmHg 88%

Tomorrow, 10 July, Friday

Time Temperature Precipitation Wind Pressure Humidity
00:00 +27°C° 0 mm 2 mps 745 mmHg 88%
01:00 +27°C° 0 mm 2 mps 745 mmHg 89%
02:00 +27°C° 0 mm 1 mps 745 mmHg 88%
03:00 +27°C° 0 mm 1 mps 744 mmHg 88%
04:00 +26°C° 0 mm 1 mps 744 mmHg 88%
05:00 +27°C° 0 mm 1 mps 745 mmHg 85%
06:00 +28°C° 0 mm 1 mps 745 mmHg 81%
07:00 +28°C° 0 mm 1 mps 745 mmHg 78%
08:00 +30°C° 0 mm 1 mps 745 mmHg 72%
09:00 +32°C° 0 mm 1 mps 745 mmHg 65%
10:00 +35°C° 0 mm 2 mps 746 mmHg 59%
11:00 +35°C° 0 mm 2 mps 745 mmHg 59%
12:00 +35°C° 0 mm 3 mps 745 mmHg 59%
13:00 +36°C° 0 mm 4 mps 744 mmHg 59%
14:00 +35°C° 0.3 mm 4 mps 744 mmHg 63%
15:00 +34°C° 0.3 mm 4 mps 743 mmHg 67%
16:00 +34°C° 0.3 mm 4 mps 743 mmHg 71%
17:00 +32°C° 0.3 mm 4 mps 743 mmHg 77%
18:00 +30°C° 0.3 mm 3 mps 744 mmHg 82%
19:00 +29°C° 0.3 mm 3 mps 744 mmHg 88%
20:00 +28°C° 0.1 mm 3 mps 745 mmHg 89%
21:00 +28°C° 0.1 mm 2 mps 745 mmHg 90%
22:00 +28°C° 0.1 mm 2 mps 746 mmHg 91%
23:00 +27°C° 0 mm 2 mps 746 mmHg 91%

Day after tomorrow, 11 July, Saturday

Time Temperature Precipitation Wind Pressure Humidity
00:00 +27°C° 0 mm 2 mps 745 mmHg 92%
01:00 +27°C° 0 mm 2 mps 745 mmHg 92%
02:00 +27°C° 0 mm 2 mps 745 mmHg 91%
03:00 +26°C° 0 mm 2 mps 744 mmHg 90%
04:00 +26°C° 0 mm 1 mps 744 mmHg 89%
05:00 +27°C° 0 mm 1 mps 744 mmHg 87%
06:00 +28°C° 0 mm 1 mps 745 mmHg 84%
07:00 +28°C° 0 mm 1 mps 745 mmHg 81%
08:00 +30°C° 0 mm 1 mps 745 mmHg 73%
09:00 +32°C° 0 mm 1 mps 745 mmHg 65%
10:00 +34°C° 0 mm 1 mps 745 mmHg 57%
11:00 +35°C° 0 mm 2 mps 745 mmHg 58%
12:00 +35°C° 0 mm 3 mps 744 mmHg 58%
13:00 +36°C° 0 mm 4 mps 744 mmHg 58%
14:00 +35°C° 0.3 mm 4 mps 743 mmHg 63%
15:00 +34°C° 0.3 mm 4 mps 743 mmHg 67%
16:00 +33°C° 0.3 mm 4 mps 743 mmHg 72%
17:00 +32°C° 0.4 mm 4 mps 743 mmHg 77%
18:00 +30°C° 0.4 mm 3 mps 744 mmHg 82%
19:00 +29°C° 0.4 mm 3 mps 744 mmHg 87%
20:00 +28°C° 0.4 mm 3 mps 745 mmHg 89%
21:00 +28°C° 0.4 mm 3 mps 745 mmHg 90%
22:00 +27°C° 0.4 mm 3 mps 746 mmHg 91%
23:00 +27°C° 0 mm 2 mps 746 mmHg 91%

12 July, Sunday

Time Temperature Precipitation Wind Pressure Humidity
00:00 +27°C° 0 mm 2 mps 745 mmHg 91%
01:00 +27°C° 0 mm 2 mps 745 mmHg 91%
02:00 +26°C° 0 mm 2 mps 745 mmHg 91%
03:00 +26°C° 0 mm 2 mps 745 mmHg 90%
04:00 +26°C° 0 mm 2 mps 745 mmHg 89%
05:00 +27°C° 0 mm 1 mps 745 mmHg 86%
06:00 +27°C° 0 mm 1 mps 745 mmHg 83%
07:00 +28°C° 0 mm 1 mps 746 mmHg 81%
08:00 +30°C° 0 mm 1 mps 746 mmHg 74%
09:00 +31°C° 0 mm 2 mps 746 mmHg 67%
10:00 +34°C° 0 mm 2 mps 746 mmHg 60%
11:00 +34°C° 0.1 mm 3 mps 746 mmHg 61%
12:00 +34°C° 0.1 mm 4 mps 745 mmHg 62%
13:00 +34°C° 0.1 mm 5 mps 745 mmHg 62%
14:00 +34°C° 0.3 mm 5 mps 744 mmHg 65%
15:00 +33°C° 0.3 mm 5 mps 744 mmHg 67%
16:00 +33°C° 0.3 mm 5 mps 744 mmHg 69%
17:00 +32°C° 0 mm 4 mps 744 mmHg 73%
18:00 +30°C° 0 mm 4 mps 745 mmHg 77%
19:00 +28°C° 0 mm 3 mps 745 mmHg 81%
20:00 +28°C° 0 mm 3 mps 746 mmHg 82%
21:00 +28°C° 0 mm 2 mps 746 mmHg 83%
22:00 +27°C° 0 mm 2 mps 747 mmHg 83%
23:00 +27°C° 0 mm 2 mps 746 mmHg 83%

13 July, Monday

Time Temperature Precipitation Wind Pressure Humidity
00:00 +27°C° 0 mm 1 mps 746 mmHg 82%
01:00 +27°C° 0 mm 1 mps 746 mmHg 82%
02:00 +27°C° 0 mm 1 mps 746 mmHg 81%
03:00 +26°C° 0 mm 1 mps 745 mmHg 80%
04:00 +26°C° 0 mm 1 mps 745 mmHg 79%
05:00 +27°C° 0 mm 1 mps 746 mmHg 76%
06:00 +28°C° 0 mm 1 mps 746 mmHg 73%
07:00 +28°C° 0 mm 1 mps 746 mmHg 70%
08:00 +30°C° 0 mm 1 mps 746 mmHg 65%
09:00 +31°C° 0 mm 2 mps 746 mmHg 61%
10:00 +34°C° 0 mm 2 mps 747 mmHg 56%
11:00 +34°C° 0.2 mm 3 mps 746 mmHg 58%
12:00 +34°C° 0.2 mm 3 mps 746 mmHg 60%
13:00 +34°C° 0.2 mm 4 mps 745 mmHg 62%
14:00 +33°C° 0.8 mm 4 mps 745 mmHg 67%
15:00 +33°C° 0.8 mm 4 mps 745 mmHg 71%
16:00 +32°C° 0.8 mm 4 mps 744 mmHg 76%
17:00 +30°C° 0.3 mm 3 mps 745 mmHg 79%
18:00 +29°C° 0.3 mm 3 mps 745 mmHg 82%
19:00 +28°C° 0.3 mm 2 mps 746 mmHg 85%
20:00 +27°C° 0 mm 2 mps 746 mmHg 86%
21:00 +27°C° 0 mm 2 mps 747 mmHg 86%
22:00 +27°C° 0 mm 2 mps 747 mmHg 87%
23:00 +26°C° 0 mm 2 mps 747 mmHg 87%

14 July, Tuesday

Time Temperature Precipitation Wind Pressure Humidity
00:00 +26°C° 0 mm 2 mps 747 mmHg 88%
01:00 +26°C° 0 mm 2 mps 746 mmHg 88%
02:00 +26°C° 0 mm 1 mps 746 mmHg 87%
03:00 +26°C° 0 mm 1 mps 746 mmHg 87%
04:00 +26°C° 0 mm 1 mps 746 mmHg 86%
05:00 +26°C° 0 mm 1 mps 746 mmHg 84%
06:00 +27°C° 0 mm 1 mps 746 mmHg 81%
07:00 +27°C° 0 mm 1 mps 747 mmHg 78%
08:00 +29°C° 0 mm 1 mps 747 mmHg 73%
09:00 +30°C° 0 mm 1 mps 747 mmHg 68%
10:00 +31°C° 0 mm 2 mps 747 mmHg 63%
11:00 +32°C° 0 mm 2 mps 746 mmHg 64%
12:00 +33°C° 0 mm 3 mps 746 mmHg 65%
13:00 +33°C° 0 mm 4 mps 745 mmHg 65%
14:00 +33°C° 0.3 mm 4 mps 745 mmHg 69%
15:00 +32°C° 0.3 mm 4 mps 745 mmHg 72%
16:00 +32°C° 0.3 mm 4 mps 744 mmHg 76%
17:00 +30°C° 0.1 mm 3 mps 745 mmHg 79%
18:00 +29°C° 0.1 mm 3 mps 745 mmHg 83%
19:00 +28°C° 0.1 mm 3 mps 745 mmHg 87%
20:00 +28°C° 0 mm 2 mps 746 mmHg 87%
21:00 +27°C° 0 mm 2 mps 746 mmHg 88%
22:00 +27°C° 0 mm 1 mps 747 mmHg 89%
23:00 +27°C° 0 mm 1 mps 746 mmHg 88%
Show more